Wind_Speed
11 26 29 27 24 24 25 24 24 19 17 14 11 7 6 4 7 7 8 12 13 15 14 16 17 18 21 25 26 27 30 28 28 28 24 35 37 41 41 44 45 42 41
13 17 27 26 24 23 22 22 20 16 14 12 10 8 8 7 7 10 9 12 16 16 18 19 21 23 24 25 22 22 21 22 24 15 10 5 12 29 38 36 41 45 44
17 13 17 25 23 22 20 18 16 15 14 12 10 10 10 12 14 15 17 18 18 14 16 20 22 21 21 22 23 22 23 23 23 25 15 3 4 3 17 38 38 34 41
16 12 15 20 21 18 17 16 15 14 13 13 13 12 11 14 16 17 18 20 21 21 22 24 21 17 18 19 20 20 22 23 21 22 21 29 19 6 6 15 28 31 35
15 14 15 23 22 19 17 15 13 12 12 11 11 12 13 14 16 18 20 21 20 18 20 22 20 18 18 18 20 22 18 19 20 16 15 18 22 28 12 10 6 24 30
13 13 20 27 22 18 17 15 12 10 9 10 12 14 15 15 16 16 18 19 20 19 18 19 18 16 19 22 26 24 23 22 21 20 17 17 12 9 11 5 8 13 18
11 12 10 15 18 18 17 13 10 10 10 11 12 13 14 12 11 12 13 14 16 17 19 21 22 22 22 23 22 22 23 25 27 22 20 16 18 18 15 10 9 3 14
12 11 12 20 21 18 15 12 9 8 8 8 9 13 13 11 9 10 14 15 13 13 16 18 19 21 23 27 25 23 22 20 27 34 28 18 19 16 14 12 10 5 5
13 11 14 22 19 16 11 9 8 9 10 10 12 14 13 14 15 16 16 18 13 14 10 15 19 19 23 25 26 26 20 19 18 25 32 30 24 20 18 18 17 10 5
13 11 12 18 16 15 14 11 9 5 5 7 8 11 13 14 15 14 14 17 20 20 22 22 21 22 21 22 25 23 24 17 11 16 29 30 30 25 24 22 22 19 15
12 10 11 18 19 16 13 10 5 2 6 10 12 14 17 18 18 19 21 24 26 27 26 26 26 26 27 25 25 26 22 19 18 16 15 21 24 25 26 26 22 20 15
10 9 13 16 16 13 8 4 3 6 9 11 14 15 18 21 23 23 24 25 27 28 29 30 30 31 32 33 30 26 18 15 15 16 19 22 27 28 25 26 25 21 18
9 8 9 12 11 8 7 9 11 10 13 16 18 20 22 24 25 26 29 30 32 32 34 35 35 36 36 35 32 30 22 19 19 19 14 24 29 26 23 23 23 22 22
10 7 7 9 13 13 10 10 11 13 15 16 19 21 22 23 22 20 20 23 24 25 26 26 26 26 29 33 32 25 21 19 22 25 21 22 26 25 27 25 23 24 23
10 8 8 7 12 11 10 9 9 10 11 13 15 17 20 21 22 26 28 30 31 30 31 31 30 24 21 22 18 9 11 20 28 24 24 24 27 28 26 26 24 24 22
10 11 8 10 10 7 6 7 10 11 12 13 16 14 17 23 25 28 29 29 26 29 32 29 26 25 17 18 20 14 16 17 21 23 27 28 27 23 26 26 25 28 27
11 9 8 9 9 11 12 12 10 11 13 13 13 19 22 23 25 26 25 25 29 31 30 29 29 26 24 23 21 24 21 23 25 25 27 29 29 25 26 25 25 25 25
10 8 10 13 16 14 12 9 10 12 13 15 17 19 22 22 22 21 24 27 27 29 29 29 29 28 25 26 29 27 28 26 28 29 27 26 28 26 24 25 24 23 22
8 12 16 19 15 12 10 10 11 13 16 17 19 21 21 21 24 25 26 27 28 26 25 27 30 34 34 27 24 26 26 26 28 29 29 26 28 24 23 21 22 22 24
16 17 18 15 15 12 11 13 13 14 16 18 19 19 20 21 21 23 25 23 25 26 27 28 25 26 28 25 24 25 27 26 27 27 27 26 25 24 21 19 21 21 21
19 19 17 16 12 12 14 12 7 10 13 14 15 18 19 20 21 23 23 24 24 26 26 25 27 26 24 25 24 25 24 25 24 23 25 25 22 20 17 16 18 21 16
16 17 16 13 12 11 10 8 8 11 15 15 16 18 21 21 20 21 24 24 22 21 22 21 23 23 23 25 24 25 25 24 25 23 27 25 19 15 14 14 13 13 10
15 14 14 12 9 7 8 7 9 11 13 16 18 19 20 20 22 22 23 23 20 18 19 17 22 22 25 26 25 25 26 24 25 24 22 17 14 11 11 10 10 10 13
14 14 13 10 6 6 6 6 7 10 14 15 17 17 18 20 20 23 20 20 19 19 19 20 23 25 26 25 23 23 24 28 24 23 15 12 8 8 8 9 11 12 15
14 12 11 7 4 2 2 5 7 9 11 14 15 17 18 18 21 20 20 21 21 21 22 22 23 24 24 25 27 28 27 25 24 21 11 7 9 10 14 13 13 14 15
12 10 8 6 5 2 2 4 6 8 9 13 16 17 19 20 19 20 21 24 22 24 23 22 25 29 28 28 28 28 27 24 19 12 10 11 12 12 14 14 14 16 17
Wind_Direction
132 115 113 112 109 104 103 101 109 111 121 117 119 104 59 40 18 2 345 334 328 324 314 306 300 299 295 292 291 293 285 276 274 263 259 256 249 244 238 237 234 233 235
137 127 116 115 109 107 105 100 97 95 89 84 68 50 40 19 360 354 351 342 330 328 325 322 320 315 310 307 303 302 290 280 276 254 270 271 249 244 242 234 235 235 239
139 134 122 119 116 110 103 97 91 83 75 63 51 29 14 3 356 345 342 341 345 333 328 323 317 312 313 314 315 310 304 294 294 284 255 264 239 251 248 239 236 230 228
142 138 133 131 124 116 111 101 95 90 68 52 39 23 2 343 340 332 328 329 331 327 326 327 317 307 301 298 301 307 310 314 310 301 276 255 258 248 265 242 239 231 228
144 144 145 139 133 128 118 115 101 79 70 52 35 19 0 348 342 341 340 340 338 333 330 328 312 308 304 303 307 308 300 293 290 292 301 293 284 262 253 261 251 237 228
148 152 148 144 141 131 119 115 102 73 43 18 9 2 351 340 334 334 332 334 330 333 335 336 335 331 327 326 324 314 306 302 296 300 303 287 273 277 268 241 256 247 249
144 141 142 131 134 125 114 104 84 59 33 16 4 351 340 325 322 331 346 348 343 339 337 329 327 326 324 324 318 313 313 320 309 300 304 305 298 290 290 296 304 275 256
134 133 132 126 125 123 119 107 87 70 34 5 344 335 339 337 343 348 341 340 339 334 334 331 336 335 335 329 316 311 304 297 312 319 305 312 303 305 310 299 302 287 213
128 129 128 133 133 129 116 99 80 52 32 6 339 332 334 333 330 331 332 332 330 326 327 325 325 328 330 325 314 312 319 306 280 292 306 304 294 293 296 298 290 278 287
133 139 140 135 131 126 118 103 88 68 15 2 358 345 334 330 326 324 321 319 315 312 313 312 314 315 317 311 311 308 312 301 297 320 304 294 293 295 298 298 296 281 265
144 140 137 130 125 123 119 118 112 24 340 331 330 324 321 318 323 319 315 315 310 306 301 303 305 304 303 300 295 297 299 293 302 298 292 293 298 295 296 299 291 283 278
142 144 139 126 122 121 115 95 23 358 358 350 343 339 331 326 322 319 317 317 317 311 302 301 299 299 299 298 291 287 279 272 273 277 316 306 312 300 295 292 279 276 280
130 121 110 118 125 112 73 60 48 21 358 345 335 328 325 323 322 323 320 316 314 313 311 308 307 306 304 293 288 272 271 259 279 282 261 279 296 295 284 282 274 268 272
133 123 119 103 101 97 75 57 38 22 7 354 345 340 340 343 342 346 351 351 347 347 341 336 337 327 315 304 290 279 274 277 289 266 273 272 280 285 287 282 278 275 270
134 129 116 120 104 87 72 39 22 22 16 11 7 356 346 344 340 337 335 332 329 330 331 331 328 344 348 326 306 303 315 321 302 280 272 278 286 295 284 282 276 270 269
122 124 122 108 98 81 70 48 41 26 16 2 352 360 346 338 337 334 330 329 328 326 327 325 323 316 324 355 321 328 313 285 270 293 297 295 295 291 288 283 279 275 271
130 123 119 114 94 79 78 62 39 17 10 15 6 349 345 339 332 325 324 322 321 323 323 320 317 316 314 304 284 303 310 301 294 295 295 298 299 296 288 285 282 273 276
128 118 113 100 92 78 65 50 40 34 20 4 358 347 339 330 330 328 326 321 322 319 320 324 319 316 318 316 314 313 308 299 290 293 293 293 294 286 289 289 287 273 269
114 111 103 104 90 76 69 52 35 24 13 3 348 343 337 329 328 322 322 325 323 325 326 324 317 313 314 321 318 312 305 296 295 291 292 291 290 286 284 278 271 265 267
112 110 110 99 84 66 47 34 31 18 4 354 339 332 330 322 318 318 317 313 319 318 321 318 319 318 315 316 317 315 309 296 291 287 285 283 284 283 278 270 257 257 257
118 120 108 96 78 48 32 26 28 4 348 332 325 322 327 328 325 317 325 325 318 317 316 314 315 311 309 311 314 313 310 301 290 282 288 286 284 279 271 260 259 262 262
131 120 101 83 64 49 41 28 353 338 332 325 321 323 328 331 323 323 327 327 320 309 310 310 312 314 315 314 310 311 313 307 300 285 290 291 291 282 266 262 258 251 237
120 111 101 93 79 53 22 8 346 340 333 328 327 323 322 324 333 333 325 319 318 314 312 311 315 313 316 313 310 308 318 312 307 298 293 287 283 269 249 243 245 212 175
130 119 109 107 94 46 34 7 351 345 341 337 331 331 327 327 331 331 325 316 318 319 317 316 316 315 314 314 310 306 310 315 308 310 288 279 256 231 230 194 182 175 166
121 115 113 107 88 65 20 7 3 353 347 344 345 341 337 337 332 328 321 318 321 322 308 307 307 309 309 308 305 302 302 304 303 297 268 223 194 173 164 164 155 156 153
130 127 131 141 164 199 355 360 352 351 346 341 335 335 341 330 329 327 319 325 321 321 316 314 315 313 308 308 308 303 301 301 298 237 218 201 183 168 162 150 142 154 147
Height
778 778 782 785 787 789 790 793 797 800 802 803 804 805 805 805 806 806 806 805 805 804 803 802 801 801 799 797 797 797 796 793 793 793 791 788 786 787 787 791 788 784 788
778 779 782 785 788 789 791 794 798 801 802 803 805 806 806 806 806 806 806 806 804 804 803 801 800 799 798 797 795 794 792 789 790 788 785 782 779 779 779 778 783 777 780
774 779 782 785 788 789 791 794 798 801 804 806 806 807 807 807 807 806 806 806 805 804 803 802 800 798 796 795 794 793 791 787 787 786 785 783 780 774 773 771 774 770 771
773 778 782 786 788 791 793 796 799 802 804 805 806 807 807 807 807 806 806 805 804 803 802 799 798 796 794 793 791 790 789 787 783 783 781 777 774 774 775 770 764 760 762
771 778 781 785 789 791 793 797 800 802 804 805 806 807 807 807 805 804 803 802 801 800 799 796 795 793 792 790 788 786 785 783 782 781 777 774 770 766 764 756 757 757 755
773 776 780 784 788 791 793 796 799 801 803 805 805 805 805 804 802 800 799 798 797 797 795 794 793 792 791 789 787 785 783 781 779 776 773 772 768 764 761 754 753 753 752
773 777 781 785 788 791 794 797 799 801 803 803 803 804 804 803 801 799 798 796 794 793 792 792 790 789 787 785 784 782 782 780 778 775 771 769 767 763 760 757 755 751 750
773 779 783 786 790 793 795 796 798 799 802 804 805 805 803 801 799 797 796 795 793 792 791 790 789 786 784 782 779 776 773 771 774 775 771 768 765 763 761 759 757 752 747
774 778 781 784 787 789 792 794 796 798 800 802 803 802 799 798 797 796 794 792 791 789 788 787 785 783 782 780 778 774 770 765 764 767 769 765 762 760 758 757 757 755 749
774 777 779 782 785 788 790 792 794 798 800 801 801 800 798 797 795 794 791 790 788 786 783 781 779 779 777 774 772 770 767 763 758 760 763 761 759 757 754 751 753 752 748
769 773 775 778 781 783 786 790 794 796 797 797 797 796 795 794 792 790 788 786 784 782 779 777 774 772 770 768 766 763 761 759 756 756 752 753 754 751 749 747 747 744 742
767 769 771 775 778 781 785 788 791 793 793 792 793 792 791 790 788 786 784 782 779 777 775 771 768 766 763 761 758 756 755 754 753 748 746 745 745 744 744 742 740 737 737
763 766 770 773 777 781 785 787 788 790 790 789 789 788 786 785 783 782 780 778 775 772 768 766 762 758 755 753 751 748 749 748 747 744 741 742 741 739 739 736 734 732 730
763 769 773 776 779 782 784 785 786 786 787 789 788 787 785 782 780 777 775 772 770 767 764 762 758 753 750 747 745 745 744 742 740 739 736 734 733 732 731 729 727 725 725
764 768 774 777 779 781 783 783 784 785 786 786 785 784 783 781 778 774 772 769 767 764 761 757 754 751 747 744 742 740 738 738 737 733 730 728 727 725 725 722 719 720 717
763 768 772 774 777 779 782 784 785 785 785 784 782 781 778 776 775 773 770 766 763 758 756 754 750 746 744 741 745 738 733 731 732 727 724 721 718 717 718 716 713 713 711
762 766 769 773 777 780 781 783 785 784 782 781 780 779 776 774 773 771 766 762 760 756 752 748 746 741 740 738 737 734 729 729 725 720 717 713 710 709 710 708 707 705 704
762 766 770 774 778 780 782 784 783 783 782 781 779 777 775 772 769 766 764 760 755 752 748 744 741 737 736 734 731 726 722 717 717 714 710 707 704 704 702 701 698 697 697
763 767 771 775 780 782 783 783 782 780 777 778 778 777 775 771 767 762 758 756 754 749 745 742 737 734 731 727 724 721 717 713 710 707 704 702 698 696 697 696 693 693 693
765 769 774 778 778 778 778 777 776 778 780 779 778 776 774 770 765 762 757 752 748 745 741 737 733 730 726 723 720 716 712 708 705 701 698 697 694 692 691 690 690 691 689
766 770 772 772 773 772 771 774 778 779 779 778 775 772 769 766 762 759 754 748 745 742 737 733 729 726 722 717 714 711 707 702 697 693 691 690 689 687 685 685 685 686 685
765 765 765 766 768 770 772 776 777 777 777 776 773 769 766 762 759 754 751 747 742 738 733 729 725 721 717 713 709 705 701 697 692 687 685 682 681 681 681 681 682 682 680
760 762 763 767 771 773 774 774 775 773 773 771 769 765 761 759 756 751 748 745 740 735 730 726 722 717 712 707 703 699 695 690 686 683 680 678 677 677 677 678 679 679 678
758 760 762 767 769 770 771 773 773 771 770 768 764 762 758 755 748 747 745 744 738 733 728 724 719 714 707 702 698 694 690 685 682 679 676 675 675 675 676 678 678 678 678
755 757 760 765 769 770 771 771 769 768 767 765 761 759 756 750 747 743 742 740 735 731 726 722 717 710 703 698 694 690 686 682 679 677 675 674 674 675 677 679 679 679 680
753 757 761 763 767 769 768 767 766 765 763 761 760 756 749 746 745 741 737 735 730 726 722 718 713 707 700 693 688 684 680 677 675 674 674 674 674 675 677 678 680 681 683